• In Italy
  • List of Countries
  • For 7 days
  • Water Temperature
  • Satellite Maps
  • Weather Map
  • Weather Widgets
  • user-avatar
    Login

    Hourly Weather Wiktoria

    Today, 24 June, Sunday

    Time Temperature Precipitation Wind Pressure Humidity
    00:00 +7°C° 0 mm 2 mps 759 mmHg 93%
    01:00 +6°C° 0 mm 2 mps 759 mmHg 95%
    02:00 +6°C° 0 mm 2 mps 759 mmHg 95%
    03:00 +5°C° 0 mm 2 mps 759 mmHg 95%
    04:00 +5°C° 0 mm 2 mps 759 mmHg 95%
    05:00 +5°C° 0 mm 2 mps 760 mmHg 95%
    06:00 +4°C° 0 mm 2 mps 760 mmHg 95%
    07:00 +4°C° 0 mm 2 mps 760 mmHg 95%
    08:00 +6°C° 0 mm 2 mps 760 mmHg 90%
    09:00 +8°C° 0 mm 3 mps 760 mmHg 85%
    10:00 +9°C° 0 mm 3 mps 760 mmHg 79%
    11:00 +11°C° 0 mm 3 mps 760 mmHg 74%
    12:00 +12°C° 0 mm 3 mps 760 mmHg 68%
    13:00 +13°C° 0 mm 3 mps 760 mmHg 62%
    14:00 +13°C° 0 mm 3 mps 759 mmHg 65%
    15:00 +12°C° 0 mm 3 mps 759 mmHg 67%
    16:00 +12°C° 0 mm 3 mps 759 mmHg 69%
    17:00 +10°C° 0 mm 3 mps 759 mmHg 75%
    18:00 +8°C° 0 mm 3 mps 760 mmHg 80%
    19:00 +7°C° 0 mm 3 mps 760 mmHg 86%
    20:00 +5°C° 0 mm 3 mps 760 mmHg 88%
    21:00 +5°C° 0 mm 3 mps 761 mmHg 89%
    22:00 +4°C° 0 mm 3 mps 761 mmHg 90%
    23:00 +4°C° 0 mm 3 mps 761 mmHg 91%

    Tomorrow, 25 June, Monday

    Time Temperature Precipitation Wind Pressure Humidity
    00:00 +3°C° 0 mm 3 mps 761 mmHg 92%
    01:00 +4°C° 0 mm 2 mps 761 mmHg 93%
    02:00 +4°C° 0 mm 2 mps 761 mmHg 93%
    03:00 +3°C° 0 mm 2 mps 761 mmHg 93%
    04:00 +3°C° 0 mm 2 mps 761 mmHg 93%
    05:00 +3°C° 0 mm 2 mps 761 mmHg 93%
    06:00 +3°C° 0 mm 2 mps 761 mmHg 93%
    07:00 +3°C° 0 mm 2 mps 761 mmHg 93%
    08:00 +4°C° 0 mm 2 mps 762 mmHg 88%
    09:00 +6°C° 0 mm 2 mps 762 mmHg 82%
    10:00 +8°C° 0 mm 2 mps 762 mmHg 76%
    11:00 +9°C° 0 mm 2 mps 762 mmHg 71%
    12:00 +12°C° 0 mm 2 mps 761 mmHg 66%
    13:00 +13°C° 0 mm 1 mps 761 mmHg 61%
    14:00 +13°C° 0 mm 1 mps 761 mmHg 63%
    15:00 +13°C° 0 mm 1 mps 760 mmHg 65%
    16:00 +13°C° 0 mm 1 mps 760 mmHg 67%
    17:00 +11°C° 0 mm 1 mps 761 mmHg 74%
    18:00 +9°C° 0 mm 1 mps 761 mmHg 80%
    19:00 +7°C° 0 mm 1 mps 761 mmHg 86%
    20:00 +7°C° 0 mm 1 mps 762 mmHg 88%
    21:00 +5°C° 0 mm 2 mps 762 mmHg 89%
    22:00 +5°C° 0 mm 2 mps 762 mmHg 91%
    23:00 +5°C° 0 mm 2 mps 762 mmHg 91%

    Day after tomorrow, 26 June, Tuesday

    Time Temperature Precipitation Wind Pressure Humidity
    00:00 +4°C° 0 mm 2 mps 762 mmHg 92%
    01:00 +4°C° 0 mm 2 mps 762 mmHg 92%
    02:00 +5°C° 0 mm 1 mps 762 mmHg 92%
    03:00 +4°C° 0 mm 1 mps 762 mmHg 92%
    04:00 +4°C° 0 mm 1 mps 762 mmHg 92%
    05:00 +4°C° 0 mm 1 mps 762 mmHg 92%
    06:00 +4°C° 0 mm 1 mps 762 mmHg 92%
    07:00 +3°C° 0 mm 1 mps 763 mmHg 92%
    08:00 +5°C° 0 mm 1 mps 763 mmHg 86%
    09:00 +6°C° 0 mm 1 mps 763 mmHg 81%
    10:00 +7°C° 0 mm 2 mps 763 mmHg 75%
    11:00 +8°C° 0 mm 2 mps 763 mmHg 70%
    12:00 +10°C° 0 mm 2 mps 762 mmHg 64%
    13:00 +12°C° 0 mm 2 mps 761 mmHg 58%
    14:00 +12°C° 0 mm 2 mps 761 mmHg 61%
    15:00 +12°C° 0 mm 1 mps 761 mmHg 63%
    16:00 +12°C° 0 mm 1 mps 761 mmHg 65%
    17:00 +11°C° 0 mm 1 mps 761 mmHg 68%
    18:00 +10°C° 0 mm 1 mps 761 mmHg 71%
    19:00 +8°C° 0 mm 1 mps 762 mmHg 74%
    20:00 +7°C° 0 mm 2 mps 762 mmHg 74%
    21:00 +7°C° 0 mm 2 mps 762 mmHg 75%
    22:00 +6°C° 0 mm 2 mps 762 mmHg 75%
    23:00 +6°C° 0 mm 2 mps 762 mmHg 73%

    27 June, Wednesday

    Time Temperature Precipitation Wind Pressure Humidity
    00:00 +6°C° 0 mm 2 mps 761 mmHg 71%
    01:00 +7°C° 0 mm 2 mps 761 mmHg 69%
    02:00 +7°C° 0.1 mm 1 mps 761 mmHg 71%
    03:00 +7°C° 0.1 mm 1 mps 761 mmHg 73%
    04:00 +7°C° 0.1 mm 1 mps 761 mmHg 75%
    05:00 +7°C° 0.2 mm 1 mps 761 mmHg 78%
    06:00 +7°C° 0.2 mm 1 mps 761 mmHg 81%
    07:00 +6°C° 0.2 mm 2 mps 761 mmHg 85%
    08:00 +6°C° 0.4 mm 2 mps 761 mmHg 86%
    09:00 +6°C° 0.4 mm 2 mps 761 mmHg 87%
    10:00 +7°C° 0.4 mm 2 mps 761 mmHg 88%
    11:00 +7°C° 0.3 mm 2 mps 760 mmHg 87%
    12:00 +8°C° 0.3 mm 2 mps 760 mmHg 87%
    13:00 +9°C° 0.3 mm 1 mps 759 mmHg 86%
    14:00 +9°C° 0.1 mm 1 mps 759 mmHg 87%
    15:00 +9°C° 0.1 mm 1 mps 759 mmHg 88%
    16:00 +8°C° 0.1 mm 2 mps 759 mmHg 89%
    17:00 +8°C° 0 mm 1 mps 759 mmHg 91%
    18:00 +8°C° 0 mm 1 mps 759 mmHg 92%
    19:00 +7°C° 0 mm 1 mps 759 mmHg 93%
    20:00 +7°C° 0 mm 1 mps 759 mmHg 93%
    21:00 +7°C° 0 mm 1 mps 759 mmHg 93%
    22:00 +6°C° 0 mm 1 mps 759 mmHg 94%
    23:00 +6°C° 0 mm 1 mps 758 mmHg 94%

    28 June, Thursday

    Time Temperature Precipitation Wind Pressure Humidity
    00:00 +6°C° 0 mm 1 mps 758 mmHg 94%
    01:00 +5°C° 0 mm 1 mps 757 mmHg 94%
    02:00 +5°C° 0 mm 1 mps 757 mmHg 94%
    03:00 +5°C° 0 mm 1 mps 757 mmHg 94%
    04:00 +5°C° 0 mm 1 mps 757 mmHg 94%
    05:00 +5°C° 0 mm 1 mps 757 mmHg 94%
    06:00 +5°C° 0 mm 1 mps 757 mmHg 94%
    07:00 +5°C° 0 mm 1 mps 757 mmHg 94%
    08:00 +6°C° 0 mm 1 mps 757 mmHg 90%
    09:00 +7°C° 0 mm 1 mps 757 mmHg 86%
    10:00 +9°C° 0 mm 1 mps 757 mmHg 82%
    11:00 +10°C° 0 mm 1 mps 756 mmHg 79%
    12:00 +11°C° 0 mm 1 mps 756 mmHg 75%
    13:00 +12°C° 0 mm 1 mps 755 mmHg 71%
    14:00 +12°C° 0 mm 1 mps 755 mmHg 71%
    15:00 +12°C° 0 mm 1 mps 755 mmHg 72%
    16:00 +12°C° 0 mm 1 mps 754 mmHg 72%
    17:00 +10°C° 0 mm 1 mps 755 mmHg 77%
    18:00 +9°C° 0 mm 1 mps 755 mmHg 82%
    19:00 +7°C° 0 mm 1 mps 755 mmHg 87%
    20:00 +7°C° 0 mm 1 mps 755 mmHg 88%
    21:00 +7°C° 0 mm 1 mps 755 mmHg 89%
    22:00 +6°C° 0 mm 1 mps 755 mmHg 91%
    23:00 +5°C° 0 mm 2 mps 755 mmHg 91%

    29 June, Friday

    Time Temperature Precipitation Wind Pressure Humidity
    00:00 +5°C° 0 mm 2 mps 755 mmHg 91%
    01:00 +5°C° 0 mm 2 mps 755 mmHg 92%
    02:00 +5°C° 0 mm 2 mps 755 mmHg 92%
    03:00 +5°C° 0 mm 2 mps 755 mmHg 92%
    04:00 +5°C° 0 mm 2 mps 755 mmHg 92%
    05:00 +5°C° 0 mm 2 mps 755 mmHg 92%
    06:00 +5°C° 0 mm 2 mps 755 mmHg 92%
    07:00 +5°C° 0 mm 2 mps 755 mmHg 92%
    08:00 +5°C° 0 mm 3 mps 755 mmHg 88%
    09:00 +8°C° 0 mm 3 mps 755 mmHg 85%
    10:00 +8°C° 0 mm 4 mps 755 mmHg 81%
    11:00 +10°C° 0 mm 4 mps 754 mmHg 76%
    12:00 +11°C° 0 mm 4 mps 754 mmHg 71%
    13:00 +12°C° 0 mm 4 mps 753 mmHg 66%
    14:00 +12°C° 0 mm 4 mps 753 mmHg 68%
    15:00 +12°C° 0 mm 3 mps 753 mmHg 69%
    16:00 +11°C° 0 mm 3 mps 753 mmHg 70%
    17:00 +10°C° 0.1 mm 3 mps 753 mmHg 74%
    18:00 +9°C° 0.1 mm 3 mps 753 mmHg 79%
    19:00 +8°C° 0.1 mm 3 mps 754 mmHg 83%
    20:00 +8°C° 0.7 mm 3 mps 754 mmHg 87%
    21:00 +8°C° 0.7 mm 2 mps 754 mmHg 91%
    22:00 +7°C° 0.7 mm 2 mps 754 mmHg 95%
    23:00 +7°C° 0.5 mm 2 mps 754 mmHg 95%
    Show more